Huvudsida
METAR-TAF:

METAR-TAF

Flygplatser :

Almirante Padilla Airport

Riohacha, Colombia

latitud: 11-32N, longitud: 072-56W, höjd: 4 m

Aktuellt väderrapport

Denna rapport gjordes för 2 timmar och 2 minuter sedan, klockan 23:00 UTC
Vind 8 kt från nordost
Temperatur 29°C
Fuktighet 79%
Tryck 1009 hPa
Sikt 10 km eller mer
Brutna moln på en höjd av 1500 ft

METAR: SKRH 182300Z 04008KT 9999 BKN015 29/25 A2980

Tid: 20:02 (01:02 UTC)


TAF: saknas

Aktuella väderrapporter och prognoser från 4000 flygplatser (METAR- och TAF-rapporter).

De tillgängliga stationerna syns som gula och röda prickar på kartan.

För musen över prickarna för att se namnen på stationerna.

Klicka sedan för att få väderrapporter och prognoser.

För att ändra kartan: Klicka på de gröna knapparna med ett svart kors på för att zooma in; den gröna knappen med ett streck på för att zooma ut; eller på de gröna pilarna för angränsande kartor.


METAR-TAF: